Flag for Canada Weather past 2 weeks in Moose Jaw, Saskatchewan, Canada

3 °F


Feels Like: -11 °F
Forecast: 6 / 30 °F
Wind: 9 mph from South

Location: Regina Weather Station

Current Time: Nov 27, 2015 at 4:51:14 AM

Latest Report: Nov 27, 2015 at 4:00 AM

Visibility: 15 mi

Pressure: 30.56 "Hg (28.37 "Hg at 560m altitude)

Humidity: 85%

Dew point: 0 °F

Location of Moose JawLocation

Historic Weather in Moose Jaw — Graph


Moose Jaw temperature yesterday

Maximum temperature yesterday: 12 °F (at 2:00 PM)
Minimum temperature yesterday: 0 °F (at 4:00 AM)
Average temperature yesterday: 5 °F

Past Weeks' High & Low Weather Summary

High55 °F (Nov 15, 3:00 PM)100% (Nov 16, 5:00 AM)30.69 "Hg (Nov 16, 5:00 AM)
Low0 °F (Nov 26, 4:00 AM)37% (Nov 17, 2:00 PM)28.96 "Hg (Nov 18, 5:00 AM)
Average26 °F78%29.94 "Hg
* Reported Nov 12 3:00 AM — Nov 27 3:00 AM, Moose Jaw, Weather by CustomWeather, © 2015

Note: Actual official high and low records may vary slightly from our data, if they occured in-between our weather recording intervals... More about our weather records


Moose Jaw weather history for previous 24 hours

Time TempWeatherWind HumidityBarometerVisibility
3:00 AM
Fri, Nov 27
5 °FClear.9 mph78%30.58 "Hg15 mi
2:00 AM3 °FClear.9 mph85%30.60 "Hg15 mi
1:00 AM3 °FClear.8 mph85%30.60 "Hg12 mi
12:00 AM1 °FClear.9 mph85%30.62 "Hg12 mi
11:00 PM
Thu, Nov 26
1 °FClear.10 mph85%30.63 "Hg12 mi
10:00 PM1 °FClear.9 mph85%30.65 "Hg12 mi
9:00 PM1 °FClear.9 mph85%30.65 "Hg10 mi
8:00 PM1 °FClear.8 mph92%30.67 "Hg15 mi
7:00 PM1 °FPassing clouds.8 mph85%30.69 "Hg15 mi
6:00 PM5 °FPassing clouds.6 mph85%30.68 "Hg10 mi
5:00 PM9 °FPassing clouds.5 mph78%30.68 "Hg12 mi
4:00 PM12 °FPassing clouds.5 mph79%30.66 "Hg12 mi
3:00 PM12 °FLight snow. Ice fog.6 mph79%30.65 "Hg6 mi
2:00 PM12 °FLight snow. Ice fog.5 mph79%30.66 "Hg5 mi
1:00 PM10 °FLight snow. Ice fog.12 mph92%30.66 "Hg4 mi
12:00 PM10 °FLight snow. Ice fog.12 mph85%30.65 "Hg4 mi
11:00 AM9 °FLight snow. Ice fog.6 mph85%30.64 "Hg4 mi
10:00 AM7 °FLight snow. Ice fog.9 mph92%30.62 "Hg6 mi
9:00 AM7 °FLight snow. Ice fog.12 mph92%30.59 "Hg6 mi
8:00 AM5 °FLight snow. Low clouds.7 mph85%30.56 "Hg12 mi
7:00 AM5 °FOvercast.2 mph85%30.53 "Hg15 mi
6:00 AM5 °FOvercast.3 mph85%30.51 "Hg15 mi
5:00 AM3 °FMostly cloudy.2 mph85%30.49 "Hg15 mi
4:00 AM0 °FPassing clouds.7 mph84%30.47 "Hg15 mi
Weather by CustomWeather, © 2015

See weather overviewHow to use our weather pages